Mount Shasta, CA

9:19 AM PDT on June 23, 2017 (GMT -0700)
Mount Shasta

Weather History for KMHS - April, 2012

Change the Weather History Date:

Friday, April 13, 2012

  Actual Average Record
Temperature  
Mean Temperature 38 °F 46 °F  
Max Temperature 44 °F 60 °F 84 °F (1947)
Min Temperature 32 °F 33 °F 19 °F (1929)
Degree Days  
Heating Degree Days 27 19  
Month to date heating degree days 319 254  
Since 1 July heating degree days 4868 4933  
Cooling Degree Days 0 0  
Month to date cooling degree days 0 0  
Year to date cooling degree days 0 0  
Moisture  
Dew Point 31 °F    
Average Humidity 87    
Maximum Humidity 96    
Minimum Humidity 67    
Precipitation  
Precipitation 0.58 in 0.10 in 1.60 in (1930)
Month to date precipitation 4.02 1.41  
Year to date precipitation 21.81 21.66  
Sea Level Pressure  
Sea Level Pressure 29.70 in    
Wind  
Wind Speed 5 mph (NNW)    
Max Wind Speed 16 mph    
Max Gust Speed 25 mph    
Visibility 4 miles    
Events Fog , Rain , Snow    
T = Trace of Precipitation, MM = Missing Value Source: NWS Daily Summary

Daily Weather History Graph

Daily Weather History Graph

Search for Another Location

Airport or City:

Trip Planner

Search our weather history database for the weather conditions in past years. The results will help you decide how hot, cold, wet, or windy it might be!

Date:

Astronomy

Apr. 13, 2012 Rise Set
Actual Time 6:31 AM PDT 7:48 PM PDT
Civil Twilight 6:03 AM PDT 8:16 PM PDT
Nautical Twilight 5:29 AM PDT 8:50 PM PDT
Astronomical Twilight 4:53 AM PDT 9:27 PM PDT
Moon 2:24 AM PDT (4/13) 12:38 PM PDT (4/13)
Length of Visible Light 14h 13m
Length of Day
13h 16m
Waning Gibbous, 46% of the Moon is Illuminated
Apr 13
Waning Gibbous
Apr 21
New
Apr 29
First Quarter
May 5
Full
May 12
Last Quarter

Hourly Weather History & Observations

Time (PDT) Temp. Windchill Dew Point Humidity Pressure Visibility Wind Dir Wind Speed Gust Speed Precip Events Conditions
12:06 AM 33.8 °F - 30.2 °F 87% 29.69 in 2.0 mi Calm Calm - 0.01 in Snow Light Snow
12:13 AM 33.8 °F - 30.2 °F 87% 29.69 in 1.5 mi Calm Calm - 0.01 in Snow Light Snow
12:34 AM 33.8 °F - 30.2 °F 87% 29.68 in 2.0 mi Calm Calm - 0.02 in Snow Light Snow
12:52 AM 33.8 °F - 30.2 °F 87% 29.68 in 5.0 mi Calm Calm - 0.03 in Snow Light Snow
12:56 AM 33.1 °F - 30.9 °F 92% 29.76 in 5.0 mi Calm Calm - 0.03 in Snow Light Snow
1:07 AM 33.8 °F - 30.2 °F 87% 29.68 in 2.5 mi Calm Calm - 0.01 in Snow Light Snow
1:14 AM 33.8 °F - 30.2 °F 87% 29.67 in 6.0 mi Calm Calm - 0.01 in Snow Light Snow
1:56 AM 33.1 °F - 30.9 °F 92% 29.75 in 4.0 mi Calm Calm - 0.03 in Snow Light Snow
2:08 AM 32.0 °F - 30.2 °F 93% 29.67 in 1.8 mi Calm Calm - 0.01 in Snow Light Snow
2:17 AM 33.8 °F - 30.2 °F 87% 29.66 in 1.0 mi Calm Calm - 0.03 in Snow Light Snow
2:32 AM 33.8 °F - 30.2 °F 87% 29.66 in 1.0 mi Calm Calm - 0.07 in Snow Light Snow
2:45 AM 33.8 °F - 30.2 °F 87% 29.65 in 1.8 mi Calm Calm - 0.10 in Snow Light Snow
2:50 AM 32.0 °F - 30.2 °F 93% 29.65 in 3.0 mi Calm Calm - 0.10 in Snow Light Snow
2:54 AM 32.0 °F 27.5 °F 30.2 °F 93% 29.65 in 1.8 mi SSW 4.6 mph - 0.11 in Snow Light Snow
2:56 AM 32.0 °F - 30.9 °F 96% 29.75 in 1.2 mi Calm Calm - 0.11 in Snow Light Snow
3:05 AM 32.0 °F - 30.2 °F 93% 29.66 in 0.5 mi Calm Calm - 0.00 in Fog , Snow Snow
3:12 AM 32.0 °F - 30.2 °F 93% 29.66 in 0.8 mi Calm Calm - 0.02 in Snow Light Snow
3:54 AM 33.8 °F - 30.2 °F 87% 29.66 in 1.0 mi Calm Calm - 0.11 in Snow Light Snow
3:56 AM 33.1 °F - 30.9 °F 92% 29.75 in 1.0 mi Calm Calm - 0.11 in Snow Light Snow
4:11 AM 32.0 °F - 30.2 °F 93% 29.65 in 1.8 mi Calm Calm - 0.02 in Snow Light Snow
4:22 AM 32.0 °F - 30.2 °F 93% 29.65 in 1.0 mi Calm Calm - 0.02 in Snow Light Snow
4:37 AM 32.0 °F - 30.2 °F 93% 29.65 in 1.5 mi Calm Calm - 0.03 in Snow Light Snow
4:42 AM 32.0 °F - 30.2 °F 93% 29.65 in 1.0 mi Calm Calm - 0.03 in Snow Light Snow
4:51 AM 32.0 °F - 30.2 °F 93% 29.65 in 0.8 mi Calm Calm - 0.04 in Snow Light Snow
4:56 AM 32.0 °F - 30.9 °F 96% 29.74 in 1.0 mi Calm Calm - 0.04 in Snow Light Snow
5:04 AM 32.0 °F - 30.2 °F 93% 29.65 in 1.0 mi Calm Calm - 0.01 in Snow Light Snow
5:19 AM 32.0 °F - 30.2 °F 93% 29.64 in 1.0 mi Calm Calm - 0.02 in Snow Light Snow
5:33 AM 32.0 °F - 30.2 °F 93% 29.64 in 1.5 mi Calm Calm - 0.03 in Snow Light Snow
5:44 AM 32.0 °F - 30.2 °F 93% 29.64 in 1.2 mi Calm Calm - 0.03 in Snow Light Snow
5:48 AM 32.0 °F - 30.2 °F 93% 29.64 in 1.5 mi Calm Calm - 0.03 in Snow Light Snow
5:56 AM 32.0 °F - 30.9 °F 96% 29.75 in 1.0 mi Calm Calm - 0.03 in Snow Light Snow
6:04 AM 32.0 °F - 30.2 °F 93% 29.65 in 0.8 mi Calm Calm - 0.00 in Snow Light Snow
6:23 AM 32.0 °F - 30.2 °F 93% 29.65 in 1.5 mi Calm Calm - 0.03 in Snow Light Snow
6:28 AM 32.0 °F - 30.2 °F 93% 29.65 in 2.0 mi Calm Calm - 0.03 in Snow Light Snow
6:38 AM 32.0 °F - 30.2 °F 93% 29.65 in 1.2 mi Calm Calm - 0.03 in Snow Light Snow
6:51 AM 32.0 °F - 30.9 °F 96% 29.74 in 0.8 mi Calm Calm - 0.03 in Snow Light Snow
6:58 AM 32.0 °F - 30.2 °F 93% 29.65 in 1.2 mi Calm Calm - 0.00 in Snow Light Snow
7:02 AM 32.0 °F - 30.2 °F 93% 29.65 in 2.0 mi Calm Calm - 0.00 in Snow Light Snow
7:04 AM 32.0 °F - 30.2 °F 93% 29.64 in 2.5 mi Calm Calm - 0.00 in Snow Light Snow
7:14 AM 32.0 °F - 30.2 °F 93% 29.64 in 4.0 mi Calm Calm - 0.00 in   Overcast
7:23 AM 33.8 °F - 30.2 °F 87% 29.64 in 1.5 mi Calm Calm - 0.00 in   Overcast
7:27 AM 32.0 °F 28.7 °F 30.2 °F 93% 29.65 in 0.8 mi ENE 3.5 mph - 0.00 in   Overcast
7:44 AM 33.8 °F - 30.2 °F 87% 29.65 in 0.8 mi Calm Calm - 0.00 in   Overcast
7:49 AM 33.8 °F - 30.2 °F 87% 29.65 in 1.0 mi Calm Calm - 0.00 in   Overcast
7:53 AM 33.8 °F - 30.2 °F 87% 29.65 in 1.8 mi Calm Calm - 0.00 in   Overcast
7:56 AM 33.1 °F - 30.9 °F 92% 29.74 in 2.5 mi Calm Calm - 0.00 in   Overcast
8:03 AM 33.8 °F - 30.2 °F 87% 29.65 in 5.0 mi Calm Calm - N/A   Overcast
8:56 AM 34.0 °F 31.0 °F 32.0 °F 92% 29.75 in 5.0 mi Variable 3.5 mph - N/A   Scattered Clouds
9:56 AM 36.0 °F - 32.0 °F 86% 29.75 in 10.0 mi Calm Calm - N/A   Clear
10:24 AM 37.4 °F 33.8 °F 33.8 °F 87% 29.67 in 10.0 mi WNW 4.6 mph - N/A   Mostly Cloudy
10:56 AM 37.9 °F 34.4 °F 33.1 °F 83% 29.75 in 10.0 mi Variable 4.6 mph - N/A   Overcast
11:24 AM 39.2 °F 33.6 °F 32.0 °F 75% 29.68 in 10.0 mi NW 8.1 mph - N/A   Overcast
11:56 AM 39.0 °F 34.8 °F 32.0 °F 76% 29.76 in 10.0 mi Variable 5.8 mph - N/A   Overcast
12:51 PM 42.8 °F 39.3 °F 32.0 °F 66% 29.68 in 10.0 mi Variable 5.8 mph - 0.00 in   Mostly Cloudy
12:56 PM 43.0 °F 38.8 °F 32.0 °F 65% 29.75 in 10.0 mi Variable 6.9 mph - 0.00 in   Mostly Cloudy
1:13 PM 42.8 °F 38.6 °F 33.8 °F 70% 29.68 in 10.0 mi Variable 6.9 mph 17.3 mph N/A   Mostly Cloudy
1:56 PM 43.0 °F 39.5 °F 32.0 °F 65% 29.75 in 10.0 mi North 5.8 mph - 0.00 in   Overcast
2:13 PM 42.8 °F 37.5 °F 30.2 °F 61% 29.67 in 10.0 mi North 9.2 mph 19.6 mph N/A   Overcast
2:56 PM 42.1 °F 38.4 °F 32.0 °F 67% 29.75 in 10.0 mi NNE 5.8 mph - N/A   Overcast
3:56 PM 39.9 °F 35.1 °F 33.1 °F 77% 29.75 in 10.0 mi Variable 6.9 mph - N/A   Overcast
4:51 PM 35.6 °F 31.7 °F 32.0 °F 87% 29.70 in 3.0 mi Variable 4.6 mph - 0.00 in Rain Rain
4:56 PM 36.0 °F 32.1 °F 32.0 °F 86% 29.80 in 4.0 mi Variable 4.6 mph - 0.02 in Rain Light Rain
5:31 PM 37.4 °F 33.8 °F 33.8 °F 87% 29.71 in 10.0 mi NNE 4.6 mph - 0.00 in   Overcast
5:52 PM 37.4 °F - 33.8 °F 87% 29.71 in 9.0 mi Calm Calm - 0.00 in   Overcast
5:56 PM 37.0 °F 33.3 °F 33.1 °F 86% 29.80 in 8.0 mi Variable 4.6 mph - 0.00 in   Overcast
6:16 PM 35.6 °F 32.8 °F 33.8 °F 93% 29.71 in 10.0 mi WNW 3.5 mph - 0.01 in   Overcast
6:56 PM 36.0 °F 30.3 °F 33.1 °F 89% 29.80 in 10.0 mi WNW 6.9 mph - 0.01 in   Overcast
7:38 PM 37.4 °F 32.1 °F 33.8 °F 87% 29.71 in 3.0 mi Variable 6.9 mph - 0.00 in Rain Rain
7:45 PM 37.4 °F 32.1 °F 32.0 °F 81% 29.71 in 2.0 mi Variable 6.9 mph - 0.02 in Rain Rain
7:56 PM 37.0 °F 31.6 °F 32.0 °F 82% 29.81 in 4.0 mi NNW 6.9 mph - 0.03 in Rain Light Rain
8:20 PM 35.6 °F 29.9 °F 30.2 °F 81% 29.73 in 3.0 mi Variable 6.9 mph 18.4 mph 0.03 in Rain Rain
8:56 PM 36.0 °F 28.5 °F 32.0 °F 86% 29.83 in 6.0 mi NNW 10.4 mph 19.6 mph 0.09 in Rain Light Rain
9:56 PM 36.0 °F 28.0 °F 32.0 °F 86% 29.84 in 5.0 mi NNW 11.5 mph 21.9 mph 0.04 in Snow Light Snow
10:56 PM 36.0 °F 28.0 °F 32.0 °F 86% 29.84 in 8.0 mi NNW 11.5 mph 19.6 mph 0.02 in   Overcast
11:56 PM 36.0 °F 28.0 °F 30.9 °F 82% 29.85 in 9.0 mi NNW 11.5 mph 21.9 mph 0.02 in   Overcast